{"data":{"norad_id":48859,"epoch":"2026-05-17T08:16:30.758016Z","epoch_age_seconds":750555,"freshness":"AGED","line1":"1 48859U 21054A   26137.34480044 -.00000068  00000+0  00000+0 0  9995","line2":"2 48859  55.1878 333.6992 0024563 229.1356 308.8651  2.00570737 36138","mean_motion":2.00570737,"eccentricity":0.0024563,"inclination_deg":55.1878,"raan_deg":333.6992,"arg_perigee_deg":229.1356,"mean_anomaly_deg":308.8651,"bstar":0,"rev_number":3613,"period_min":717.95119344852,"perigee_km":20116.342458744,"apogee_km":20246.819729854,"semimajor_km":26559.718094299,"source":"CELESTRAK","updated_at":"2026-05-25T13:38:23.768058Z"}}